Voltar ao catálogo

COSMOS 1372

AtivoNavegaçãoLEO
NORAD 13243·PAYLOAD·🇷🇺 Russia

Lançado Jun 1, 1982 de Baikonur Cosmodrome

Loading…

Próximas Passagens (próximas 24 horas)

TLE

AtualizadoSource: Space-Track

Época: Sep 14, 2026, 14:08 UTC

1 13243U 82052A   26257.58948000 -.00000075  00000-0  12844-4 0  9992
2 13243  64.9049  14.9055 0051433 261.4824  98.0406 13.86116853658697

Acompanhe COSMOS 1372 em tempo real com AllMySat

Download on the App Store